Voltar ao catálogo

ONEWEB-0393

AtivoComunicaçõesPO
NORAD 50473·PAYLOAD·🇬🇧 United Kingdom

Lançado Dec 27, 2021 de Baikonur Cosmodrome

Loading…

Próximas Passagens (próximas 24 horas)

TLE

AtualizadoSource: CelesTrak SupGP

Época: Sep 14, 2026, 19:48 UTC

1 50473C 21132E   26257.82553655 -.00001718  00000+0 -44311-2 0  2579
2 50473  87.9198 348.0628 0001947 107.0211 314.1223 13.17648090    13

Acompanhe ONEWEB-0393 em tempo real com AllMySat

Download on the App Store